#timestamp,LO_Frequency,Hit,StdDev 
1501387215.8,286046994.9,N,2.0
1501387235.6,286046998.0,N,2.0
1501387255.4,286046995.2,N,2.1
1501387275.3,286046997.9,N,2.1
1501387295.1,286046995.5,N,2.2
1501387315.9,286046995.7,N,2.2
1501387335.7,286046995.2,N,2.3
1501387355.5,286046996.1,N,2.3
1501387375.4,286046993.7,N,2.4
1501387395.2,286046991.9,P,3.3
1501387415.1,286046995.6,N,2.7
1501387416.0,286046995.6,N,2.3
1501387435.8,286046996.3,N,2.1
1501387455.7,286046993.7,P,0.9
1501387475.5,286046999.3,N,2.3
1501387495.3,286046997.2,N,2.1
1501387515.2,286046999.2,N,2.2
1501387535.0,286046999.0,N,2.1
1501387535.9,286046999.0,N,2.0
1501387555.7,286046999.6,N,2.0
1501387575.6,286046996.6,N,1.9
1501387595.4,286046996.7,N,1.9
1501387615.3,286046997.8,N,1.8
1501387635.1,286046996.9,N,1.7
1501387655.8,286046996.7,N,1.7
1501387675.7,286046995.7,N,1.7
1501387695.5,286046995.8,N,1.7
1501387715.4,286046995.3,N,1.7
1501387735.2,286046996.0,N,1.6
1501387755.0,286046995.6,N,1.6
1501387755.9,286046995.6,N,1.6
1501387775.8,286046995.8,N,1.6
1501387795.6,286046995.8,N,1.6
1501387815.5,286046996.0,N,1.5
1501387835.3,286046996.3,N,1.5
1501387855.1,286046996.3,N,1.5
1501387875.9,286046996.0,N,1.5
1501387895.7,286046995.9,N,1.4
1501387915.6,286046995.5,P,0.6
1501387935.4,286046999.0,N,1.5
1501387955.2,286046999.6,N,1.7
1501387975.1,286046997.7,N,1.5
1501387976.0,286046997.7,N,1.4
1501387995.8,286046997.3,N,1.3
1501388015.7,286046999.5,N,1.3
1501388035.5,286046996.8,N,1.3
1501388055.3,286046996.9,N,1.3
1501388075.2,286046999.2,N,1.3
1501388095.0,286046999.2,N,1.3
1501388095.9,286046999.2,N,1.3
1501388115.7,286046996.5,N,1.3
1501388135.6,286046996.9,N,1.3
1501388155.4,286046997.2,N,1.2
1501388175.3,286046997.2,N,1.2
1501388195.1,286046996.9,N,1.2
1501388215.8,286046996.8,N,1.2
1501388235.7,286046997.3,N,1.2
1501388255.5,286046997.7,N,1.1
1501388275.4,286046996.7,N,1.1
1501388295.2,286046997.8,N,1.1
1501388315.0,286046995.1,P,1.3
1501388315.9,286046995.1,P,1.2
1501388335.8,286046999.1,N,1.7
1501388355.6,286046998.9,N,1.8
1501388375.5,286046997.0,N,1.6
1501388395.3,286046996.5,N,1.5
1501388415.1,286046998.3,N,1.5
1501388435.9,286046998.9,N,1.5
1501388455.7,286046999.1,N,1.5
1501388475.6,286046999.2,N,1.5
1501388495.4,286046999.2,N,1.5
1501388515.2,286046996.5,N,1.5
1501388535.1,286046997.0,N,1.4
1501388536.0,286046997.0,N,1.4
1501388555.8,286046997.0,N,1.4
1501388575.7,286046999.2,N,1.4
1501388595.5,286046998.9,N,1.4
1501388615.3,286046996.7,N,1.4
1501388635.2,286046997.0,N,1.3
1501388655.0,286046999.6,N,1.4
1501388655.9,286046999.6,N,1.4
1501388675.8,286046999.0,N,1.4
1501388695.6,286046999.4,N,1.4
1501388715.4,286046998.7,N,1.4
1501388735.3,286046998.2,N,1.3
1501388755.1,286046998.1,N,1.3
1501388775.9,286047001.1,N,1.4
1501388795.7,286047000.6,N,1.5
1501388815.5,286047000.9,N,1.5
1501388835.4,286047001.0,N,1.6
1501388855.2,286047000.6,N,1.5
1501388875.1,286047002.4,N,1.5
1501388876.0,286047002.4,N,1.6
1501388895.8,286047000.4,N,1.7
1501388915.6,286046999.9,N,1.6
1501388935.5,286047000.2,N,1.6
1501388955.3,286046999.7,N,1.6
1501388975.2,286047000.6,N,1.6
1501388995.9,286046999.9,N,1.6
1501389015.7,286046999.9,N,1.6
1501389035.6,286047002.5,N,1.7
1501389055.4,286046999.8,N,1.6
1501389075.3,286046999.8,N,1.5
1501389095.1,286046999.7,N,1.4
1501389096.0,286046999.7,N,1.3
1501389115.8,286047002.8,N,1.4
1501389135.7,286047002.6,N,1.5
1501389155.5,286047002.2,N,1.4
1501389175.4,286047002.7,N,1.3
1501389195.2,286047002.4,N,1.4
1501389215.0,286047003.2,N,1.4
1501389215.9,286047003.2,N,1.5
1501389235.8,286047001.3,N,1.4
1501389255.6,286047002.8,N,1.4
1501389275.5,286047001.9,N,1.3
1501389295.3,286047002.5,N,1.2
1501389315.1,286047002.0,N,1.2
1501389335.9,286047004.4,P,1.5
1501389355.7,286047001.5,N,1.4
1501389375.6,286047001.6,N,1.3
1501389395.4,286047001.7,N,1.2
1501389415.2,286047002.2,N,1.1
1501389435.1,286047001.5,N,1.0
1501389436.0,286047001.5,N,1.0
1501389455.8,286047003.9,P,1.0
1501389475.7,286046999.7,N,1.7
1501389495.5,286047000.4,N,1.6
1501389515.3,286047002.8,N,1.5
1501389535.2,286047000.2,N,1.5
1501389555.0,286047000.0,N,1.5
1501389555.9,286047000.0,N,1.5
1501389575.8,286047000.1,N,1.4
1501389595.6,286047002.1,N,1.4
1501389615.4,286047002.1,N,1.3
1501389635.3,286047002.0,N,1.3
1501389655.1,286047004.4,P,1.6
1501389675.9,286047000.2,N,1.8
1501389695.7,286047001.1,N,1.6
1501389715.5,286047000.9,N,1.5
1501389735.4,286047001.0,N,1.3
1501389755.2,286047000.7,N,1.3
1501389775.1,286046998.6,N,1.5
1501389776.0,286046998.6,N,1.6
1501389795.8,286046998.5,N,1.7
1501389815.6,286046998.2,N,1.7
1501389835.5,286046998.6,N,1.7
1501389855.3,286046998.7,N,1.7
1501389875.2,286047000.4,N,1.6
1501389895.9,286047001.0,N,1.6
1501389915.7,286047001.2,N,1.6
1501389935.6,286047000.0,N,1.5
1501389955.4,286047000.2,N,1.5
1501389975.3,286046999.8,N,1.4
1501389995.1,286047000.6,N,1.4
1501389996.0,286047000.6,N,1.4
1501390015.8,286047000.1,N,1.3
1501390035.7,286047002.6,N,1.4
1501390055.5,286047000.1,N,1.4
1501390075.4,286047000.0,N,1.4
1501390095.2,286047002.2,N,1.4
1501390115.0,286047000.3,N,1.3
1501390115.9,286047000.3,N,1.3
1501390135.8,286047000.2,N,1.3
1501390155.6,286047002.3,N,1.3
1501390175.5,286047001.8,N,1.3
1501390195.3,286047001.5,N,1.1
1501390215.1,286047002.2,N,1.2
1501390235.9,286047004.3,P,1.9
1501390255.7,286047001.4,N,1.7
1501390275.6,286047001.8,N,1.4
1501390295.4,286047002.0,N,1.3
1501390315.2,286047004.0,P,1.0
1501390335.1,286046999.8,N,1.7
1501390336.0,286046999.8,N,1.7
1501390355.8,286046999.9,N,1.7
1501390375.7,286047000.4,N,1.5
1501390395.5,286046998.3,N,1.7
1501390415.3,286047001.0,N,1.6
1501390435.2,286047000.1,N,1.5
1501390455.0,286047000.1,N,1.5
1501390455.9,286047000.1,N,1.4
1501390475.8,286047002.8,N,1.5
1501390495.6,286046999.9,N,1.4
1501390515.4,286046999.9,N,1.4
1501390535.3,286047000.7,N,1.3
1501390555.1,286047000.9,N,1.3
1501390575.9,286047000.9,N,1.3
1501390595.7,286047000.9,N,1.2
1501390615.5,286047000.9,N,1.2
1501390635.4,286047000.1,N,1.2
1501390655.2,286047002.4,N,1.2
1501390675.1,286047002.2,N,1.2
1501390676.0,286047002.2,N,1.2
1501390695.8,286047000.2,N,1.2
1501390715.6,286046999.9,N,1.2
1501390735.5,286047000.5,N,1.2
1501390755.3,286047000.9,N,1.2
1501390775.1,286047000.5,N,1.1
1501390795.9,286046999.8,N,1.1
